Location: Glendale
(37.4556°N, 88.6714°W)
Time: 19:20:41
(UTC+00:00)

Cosmos 1943 - Pass Details

Date: 08 December 2019
Orbit: 835 x 849 km, 71.0° (Epoch: 25 January)

Event Time Altitude Azimuth Distance (km) Brightness Sun altitude
Exits shadow 11:17:32 - 347° (NNW) 2,723 5.6 -19.1°
Reaches altitude 10° 11:18:17 10° 349° (N) 2,451 5.4 -18.9°
Maximum altitude 11:23:42 48° 64° (ENE) 1,089 4.1 -17.9°
Drops below altitude 10° 11:29:05 10° 138° (SE) 2,441 6.5 -16.9°
Sets 11:31:36 0° 143° (SE) 3,373 7.2 -16.4°
